User: anonymous   Login
Location: Unspecified
(0.0000°N, 0.0000°E)
Time: 21:29:57
(UTC+00:00)
Language:

ANTELSAT - Orbit

View from above orbital plane
View from above orbital plane
View from above satellite
View from above satellite

Ground track
Ground track

The orbit data is extracted from the following two-line orbital elements,

1 40034U 14033AA  18343.89137595  .00000232  00000-0  41915-4 0  9999
2 40034  97.7847 213.8507 0058756 353.2358   6.8051 14.74013435240560
Epoch (UTC): 09 December 2018 21:23:34
Eccentricity: 0.0058756
inclination: 97.7847°
perigee height: 607 km
apogee height: 689 km
right ascension of ascending node: 213.8507°
argument of perigee: 353.2358°
revolutions per day: 14.74013435
mean anomaly at epoch: 6.8051°
orbit number at epoch: 24056

The dashed part of the orbit path shows where the satellite is in the earth's shadow,  

DLR